IRIDIUM 33 DEB, 46974

Orbit data source: Space-Track

IRIDIUM 33 DEB, 46974 is space debris in LEO originally from a launch on Sun, 14 Sep 1997 UTC launched from the Tyuratam Missile And Space Complex (TTMTR). The debris from Iridium 33, an American commercial communications satellite, has been tracked extensively since its accidental collision with the defunct Russian satellite Cosmos 2251 in 2009. This event, occurring at high speed in low Earth orbit (LEO), generated thousands of pieces of space debris, significantly increasing the risk of further collisions. The Iridium 33 debris cloud has impacted space traffic management and orbital debris mitigation strategies, making it a subject of ongoing study in space situational awareness.

Loading next visibility...
Identifier
46974, 1997-051ACG
Orbit
LEO
Country
Flag of USUS
Related business
Manufacturer
Unknown
Mission
Spacecraft
Bus & Motor
Unknown
Mass
Unknown
Launch date (UTC)
1997-09-14 (28 years ago)
Launch vehicle
Unknown
Launch site
Tyuratam Missile And Space Complex (TTMTR)
Object type
Payload
Rocket body
Debris
Shape & HBR
Unknown shape, 0.1 m
Radar Cross Section
Small (<0.1 m²)

Expand to show TLE details & history
Last TLE update: 14 hours ago

TLE from 14 hours ago
0 IRIDIUM 33 DEB
1 46974U 97051ACG 26037.87408340  .00011692  00000-0  31263-2 0  9990
2 46974  86.2965  80.7360 0089098   2.3023 357.8570 14.45868378583191
Epoch: 2026-02-06T20:58Z
TLE epoch observation values (Epoch: 2026-02-06T20:58:40.805Z)
Latitude
-0.00007°
Longitude
-10.93973°
Altitude
678.859 km
Speed
7.551 km/s
True Right ascension
05h 22m 56s
True Declination
0° 00' 00"
Sunlit
Object was in full shadow at epoch
Visualization orbit readout
Latitude
Unknown
Longitude
Unknown
Altitude
Unknown
Speed
Unknown
Apparent Right ascension
Unknown
Apparent Declination
Unknown
Sunlit
N/A
Visualization observer readout
Local Sidereal Time
12:54:46
Azimuth
Unknown
Elevation
Unknown
Doppler factor
Unknown
Orbital elements
Apogee altitude
799.511 km
Perigee altitude
672.738 km
Semi-major axis
7,114.262 km
Eccentricity
0.00891
Inclination
86.2965°
RAAN
80.736°
Arg. of periapsis
2.3023°
True anomaly
357.81839°
Mean anomaly
357.857°
Eccentric anomaly
357.83774°
Mean motion
3.617 °/min
Orbital period
99.53 mins
BSTAR
0.0031263
Loading maneuver chart data...
Computing Atmospheric mass density...

Documentation

Showing up to 5 results
|